{"data":{"norad_id":65959,"epoch":"2026-05-25T00:21:24.102720Z","epoch_age_seconds":84443,"freshness":"FRESH","line1":"1 65959U 25228N   26145.01486230  .00001705  00000+0  25260-3 0  9995","line2":"2 65959  51.9044  13.1197 0000857 103.7229 256.3828 14.79937979 24965","mean_motion":14.79937979,"eccentricity":8.57e-5,"inclination_deg":51.9044,"raan_deg":13.1197,"arg_perigee_deg":103.7229,"mean_anomaly_deg":256.3828,"bstar":0.0002526,"rev_number":2496,"period_min":97.3013748166,"perigee_km":628.91935555252,"apogee_km":630.1204679472,"semimajor_km":7007.6569117499,"source":"CELESTRAK","updated_at":"2026-05-25T13:38:05.848037Z"}}